TimeCST,TemperatureF,Dew PointF,Humidity,Sea Level PressureIn,VisibilityMPH,Wind Direction,Wind SpeedMPH,Gust SpeedMPH,PrecipitationIn,Events,Conditions,WindDirDegrees,DateUTC
12:53 AM,28.9,24.1,82,30.44,10.0,NNW,5.8,-,N/A,,Clear,340,2013-12-24 06:53:00
1:19 AM,30.2,24.8,80,30.43,10.0,NNW,6.9,-,N/A,,Mostly Cloudy,340,2013-12-24 07:19:00
1:53 AM,30.0,25.0,82,30.45,10.0,North,6.9,-,N/A,,Mostly Cloudy,350,2013-12-24 07:53:00
2:06 AM,30.2,24.8,80,30.43,10.0,NNW,3.5,-,N/A,,Scattered Clouds,340,2013-12-24 08:06:00
2:53 AM,28.0,23.0,81,30.46,10.0,NNW,5.8,-,N/A,,Clear,340,2013-12-24 08:53:00
3:53 AM,27.0,23.0,85,30.46,10.0,NNW,4.6,-,N/A,,Clear,330,2013-12-24 09:53:00
4:53 AM,27.0,21.9,81,30.46,10.0,NNW,6.9,-,N/A,,Clear,340,2013-12-24 10:53:00
5:53 AM,26.1,21.0,81,30.49,10.0,NNW,6.9,-,N/A,,Clear,340,2013-12-24 11:53:00
6:53 AM,27.0,21.0,78,30.52,10.0,NNW,4.6,-,N/A,,Partly Cloudy,340,2013-12-24 12:53:00
7:53 AM,28.0,21.9,78,30.54,10.0,North,6.9,-,N/A,,Mostly Cloudy,350,2013-12-24 13:53:00
8:34 AM,28.4,21.2,74,30.53,10.0,North,15.0,19.6,N/A,,Scattered Clouds,350,2013-12-24 14:34:00
8:53 AM,28.9,21.0,72,30.55,10.0,North,13.8,-,N/A,,Scattered Clouds,10,2013-12-24 14:53:00
9:53 AM,30.9,19.9,64,30.56,10.0,North,18.4,23.0,N/A,,Scattered Clouds,10,2013-12-24 15:53:00
10:53 AM,33.1,21.0,61,30.55,10.0,North,11.5,-,N/A,,Mostly Cloudy,360,2013-12-24 16:53:00
11:53 AM,34.0,19.9,56,30.53,10.0,North,8.1,-,N/A,,Scattered Clouds,10,2013-12-24 17:53:00
12:53 PM,36.0,19.9,52,30.51,10.0,North,9.2,-,N/A,,Partly Cloudy,360,2013-12-24 18:53:00
1:53 PM,37.0,19.9,50,30.49,10.0,NNE,6.9,-,N/A,,Partly Cloudy,30,2013-12-24 19:53:00
2:53 PM,37.9,19.0,47,30.49,10.0,North,8.1,-,N/A,,Partly Cloudy,10,2013-12-24 20:53:00
3:53 PM,36.0,18.0,48,30.48,10.0,NNE,8.1,-,N/A,,Clear,20,2013-12-24 21:53:00
4:53 PM,32.0,18.0,56,30.48,10.0,North,6.9,-,N/A,,Clear,10,2013-12-24 22:53:00
5:53 PM,30.9,15.1,52,30.47,10.0,NNE,5.8,-,N/A,,Clear,30,2013-12-24 23:53:00
6:53 PM,28.9,17.1,61,30.48,10.0,NNE,6.9,-,N/A,,Clear,30,2013-12-25 00:53:00
7:53 PM,28.0,15.1,58,30.47,10.0,NNE,8.1,-,N/A,,Clear,20,2013-12-25 01:53:00
8:53 PM,28.0,14.0,56,30.46,10.0,NNE,6.9,-,N/A,,Clear,30,2013-12-25 02:53:00
9:53 PM,27.0,14.0,58,30.46,10.0,NE,5.8,-,N/A,,Clear,50,2013-12-25 03:53:00
10:53 PM,27.0,12.9,56,30.45,10.0,Calm,Calm,-,N/A,,Clear,0,2013-12-25 04:53:00
11:53 PM,25.0,12.9,60,30.43,10.0,Calm,Calm,-,N/A,,Clear,0,2013-12-25 05:53:00